This is the latest recevied weather packets stored in our database for station/object KI7CSN-13. If no packets are shown the sender has not sent any weather packets the latest 10 day(s).
| Time | Temp. | Humidity | Pressure | Rain* | Wind** | Luminosity | Snow |
|---|---|---|---|---|---|---|---|
| 1777930663 | 20° C | 24% | 979.5 hPa | 0 mm | - | - | - |
| 1777930363 | 20° C | 23% | 979.6 hPa | 0 mm | - | - | - |
| 1777930063 | 19.44° C | 24% | 979.6 hPa | 0 mm | - | - | - |
| 1777929763 | 20° C | 24% | 979.5 hPa | 0 mm | - | - | - |
| 1777929463 | 19.44° C | 23% | 979.7 hPa | 0 mm | - | - | - |
| 1777929163 | 19.44° C | 24% | 979.7 hPa | 0 mm | - | - | - |
| 1777928863 | 19.44° C | 25% | 979.7 hPa | 0 mm | - | - | - |
| 1777928563 | 19.44° C | 25% | 979.7 hPa | 0 mm | - | - | - |
| 1777928263 | 19.44° C | 26% | 979.9 hPa | 0 mm | - | - | - |
| 1777927963 | 20° C | 24% | 979.8 hPa | 0 mm | - | - | - |
| 1777927663 | 19.44° C | 29% | 979.7 hPa | 0 mm | - | - | - |
| 1777927363 | 18.89° C | 27% | 979.8 hPa | 0 mm | - | - | - |
| 1777927063 | 18.89° C | 29% | 979.8 hPa | 0 mm | - | - | - |
| 1777926763 | 19.44° C | 31% | 979.8 hPa | 0 mm | - | - | - |
| 1777926463 | 19.44° C | 31% | 979.8 hPa | 0 mm | - | - | - |
| 1777926163 | 20° C | 33% | 979.8 hPa | 0 mm | - | - | - |
| 1777925863 | 18.89° C | 35% | 979.8 hPa | 0 mm | - | - | - |
| 1777925563 | 18.89° C | 37% | 979.9 hPa | 0 mm | - | - | - |
| 1777925263 | 18.33° C | 37% | 980.2 hPa | 0 mm | - | - | - |
| 1777924963 | 17.78° C | 40% | 980.3 hPa | 0 mm | - | - | - |
| 1777924663 | 18.33° C | 39% | 980.4 hPa | 0 mm | - | - | - |
| 1777924363 | 18.33° C | 40% | 980.3 hPa | 0 mm | - | - | - |
| 1777924063 | 17.78° C | 43% | 980.4 hPa | 0 mm | - | - | - |
| 1777923763 | 17.78° C | 43% | 980.3 hPa | 0 mm | - | - | - |
| 1777923463 | 17.78° C | 43% | 980.3 hPa | 0 mm | - | - | - |
* Rain latest hour (hover to see other rain measurements)
** Current wind speed in m/s (hover to see current wind gust speed)